Regional Weather Roundup
Issued by NWS Northern Indiana

Home | Current Version | Previous Version | Text Only | Print | Product List | Glossary On
Versions: 1 2 3 4 5 6 7 8 9 10 11 12 13 14 15 16 17 18 19 20 21 22 23 24 25 26 27 28 29 30 31 32 33 34 35 36 37 38 39 40 41 42 43 44 45 46 47 48 49 50
000
ASUS43 KIWX 281410
RWRIWX

KIWX WEATHER ROUNDUP
NATIONAL WEATHER SERVICE NORTHERN INDIANA
1000 AM EDT SAT MAY 28 2016

NOTE: "FAIR" INDICATES FEW OR NO CLOUDS BELOW 12,000 FEET WITH NO
SIGNIFICANT WEATHER AND/OR OBSTRUCTIONS TO VISIBILITY.

* THESE STATIONS ARE NOT UNDER NWS QUALITY CONTROL. THEY ALSO MAY NOT
  REPORT WEATHER SUCH AS PRECIPITATION OR FOG.

INZ001>027-281500-
NORTHERN INDIANA

CITY           SKY/WX    TMP DP  RH WIND       PRES   REMARKS
GARY*          PTSUNNY   75  72  88 S12G23    29.93R
VALPARAISO     CLOUDY    74  65  73 S15       29.95S
MICHIGAN CITY* CLOUDY    72  64  78 S12G17    29.94S
LAPORTE*       CLOUDY    75  68  79 S9G16     29.97R
KNOX*          CLOUDY    73  57  56 S15       29.97R
SOUTH BEND     CLOUDY    74  64  71 S13       29.97R
ELKHART*       CLOUDY    77  68  73 SW10      29.99R
GOSHEN         PTSUNNY   78  64  61 S16       29.99R
MONTICELLO*    CLOUDY    74  62  65 S10G17    29.98R
LOGANSPORT*    CLOUDY    75  64  69 S17       30.01R
ROCHESTER*     CLOUDY    79  66  65 S15       30.01R
WARSAW*        PTSUNNY   77  64  65 S10       30.01R
ANGOLA*          N/A     73  66  78 S9        30.03R
FORT WAYNE     CLOUDY    73  65  75 S10       30.04R
HUNTINGTON*    CLOUDY    75  65  70 S8        30.03R
PERU/GRISSOM   CLOUDY    78  66  67 SW17      30.00R
MARION*        CLOUDY    75  64  70 SW15      30.04S

$$
INZ028>050-281500-
CENTRAL INDIANA

CITY           SKY/WX    TMP DP  RH WIND       PRES   REMARKS
LAFAYETTE      CLOUDY    74  64  71 S13G22    29.98R
KOKOMO*        CLOUDY    77  63  61 SW16G22   30.02R
MUNCIE*        MOSUNNY   77  64  64 S9        30.06R
INDIANAPOLIS   CLOUDY    74  65  73 S14       30.02R

$$
MIZ043>046-050>051-056>058-064>065-071>073-077>080-281500-
SOUTHWEST LOWER MICHIGAN

CITY           SKY/WX    TMP DP  RH WIND       PRES   REMARKS
BENTON HARBOR  CLOUDY    75  64  68 S12G21    29.94R
COLDWATER*     CLOUDY    74  65  74 S8        30.02R
HILLSDALE*     LGT RAIN  71  64  78 SW6       30.05R
HOLLAND        CLOUDY    74  65  73 S10       29.95R
GRAND RAPIDS   CLOUDY    74  65  73 S12       29.97R
KALAMAZOO      CLOUDY    76  64  66 S14G20    29.99R
STURGIS*       CLOUDY    75  65  70 S14       30.00R
THREE RIVERS*  FAIR      76  65  69 S10       30.00R

$$
OHZ001>008-015>018-024>025-281500-
NORTHWEST OHIO

CITY           SKY/WX    TMP DP  RH WIND       PRES   REMARKS
WAUSEON*         N/A     77  77 100 SW12      30.05R
DEFIANCE       CLOUDY    77  65  66 S7        30.04R
FINDLAY        CLOUDY    79  64  60 SW14      30.06R
TOLEDO EXPRESS SUNNY     80  66  62 SW8       30.05R
TOLEDO METCALF CLOUDY    79  65  62 S9        30.06R
LIMA           MOSUNNY   78  66  66 SW12      30.08R

$$
AND FOR LAKE MICHIGAN COASTAL AND OPEN LAKE BUOY OBSERVATIONS

STATION/POSITION TEMP    WIND        PRES    VSBY  WAVE
                 AIR SEA DIR/SP/G                  HT/PER
                 (F)     (DEG/KT/KT) (MB)    (MI)  (FT/S)
CALUMET HARBOR    73     170/ 13/ 18 1012.1R
MICHIGAN CITY     72     170/ 16/ 19   N/A
BURNS HARBOR      73     190/ 19/ 25 1013.2S
SAINT JOSEPH      74     180/  7/ 15 1014.6S
SOUTH LAKE BUOY   55 50  160/ 14/ 16 1012.2R         2/ 3
4 MI NW BRIDGMAN  68 61  180/ 12/ 16   N/A           2/ 3
MICHIGAN CITY     67 58  210/ 10/ 14   N/A           2/ 2

$$
&&



USA.gov is the U.S. government's official web portal to all federal, state and local government web resources and services.